EHI
0 0 0 0 0 0 0 0 0 0 0 0 0 0 0 0 0 0 0 0 0 0 0 0 0 0 0 0 0 0 0 0 0 0 0 0 0 0 0 0 0 0 0 0
0 0 0 0 0 0 0 0 0 0 0 0 0 0 0 0 0 0 0 0 0 0 0 0 0 0 0 0 0 0 0 0 0 0 0 0 0 0 0 0 0 0 0 0
0 0 0 0 0 0 0 0 0 0 0 0 0 0 0 0 0 0 0 0 0 0 0 0 0 0 0 0 0 0 0 0 0 0 0 0 0 0 0 0 0 0 0 0
0 0 0 0 0 0 0 0 0 0 0 0 0 0 0 0 0 0 0 0 0 0 0 0 0 0 0 0 0 0 0 0 0 0 0 0 0 0 0 0 0 0 0 0
0 0 0 0 0 0 0 0 0 0 0 0 0 0 0 0 0 0 0 0 0 0 0 0 0 0 0 0 0 0 0 0 0 0 0 0 0 0 0 0 0 0 0 0
0 0 0 0 0 0 0 0 0 0 0 0 0 0 0 0 0 0 0 0 0 0 0 0 0 0 0 0 0 0 0 0 0 0 0 0 0 0 0 0 0 0 0 0
0 0 0 0 0 0 0 0 0 0 0 0 0 0 0 0 0 0 0 0 0 0 0 0 0 0 0 0 0 0 0 0 0 0 0 0 0 0 0 0 0 0 0 0
0 0 0 0 0 0 0 0 0 0 0 0 0 0 0 0 0 0 0 0 0 0 0 0 0 0 0 0 0 0 0 0 0 0 0 0 0 0 0 0 0 0 0 0
0 0 0 0 0 0 0 0 0 0 0 0 0 0 0 0 0 0 0 0 0 0 0 0 0 0 0 0 0 0 0 0 0 0 0 0 0 0 0 0 0 0 0 0
0 0 0 0 0 0 0 0 0 0 0 0 0 0 0 0 0 0 0 0 0 0 0 0 0 0 0 0 0 0 0 0 0 0 0 0 0 0 0 0 0 0 0 0
0 0 0 0 0 0 0 0 0 0 0 0 0 0 0 0 0 0 0 0 0 0 0 0 0 0 0 0 0 0 0 0 0 0 0 0 0 0 0 0 0 0 0 0
0 0 0 0 0 0 0 0 0 0 0 0 0 0 0 0 0 0 0 0 0 0 0 0 0 0 0 0 0 0 0 0 0 0 0 0 0 0 0 0 0 0 0 0
0 0 0 0 0 0 0 0 0 0 0 0 0 0 0 0 0 0 0 0 0 0 0 0 0 0 0 0 0 0 0 0 0 0 0 0 0 0 0 0 0 0 0 0
0 0 0 0 0 0 0 0 0 0 0 0 0 0 0 0 0 0 0 0 0 0 0 0 0 0 0 0 0 0 0 0 0 0 0 0 0 0 0 0 0 0 0 0
0 0 0 0 0 0 0 0 0 0 0 0 0 0 0 0 0 0 0 0 0 0 0 0 0 0 0 0 0 0 0 0 0 0 0 0 0 0 0 0 0 0 0 0
0 0 0 0 0 0 0 0 0 0 0 0 0 0 0 0 0 0 0 0 0 0 0 0 0 0 0 0 0 0 0 0 0 0 0 0 0 0 0 0 0 0 0 0
0 0 0 0 0 0 0 0 0 0 0 0 0 0 0 0 0 0 0 0 0 0 0 0 0 0 0 0 0 0 0 0 0 0 0 0 0 0 0 0 0 0 0 0
0 0 0 0 0 0 0 0 0 0 0 0 0 0 0 0 0 0 0 0 0 0 0 0 0 0 0 0 0 0 0 0 0 0 0 0 0 0 0 0 0 0 0 0
0 0 0 0 0 0 0 0 0 0 0 0 0 0 0 0 0 0 0 0 0 0 0 0 0 0 0 0 0 0 0 0 0 0 0 0 0 0 0 0 0 0 0 0
0 0 0 0 0 0 0 0 0 0 0 0 0 0 0 0 0 0 0 0 0 0 0 0 0 0 0 0 0 0 0 0 0 0 0 0 0 0 0 0 0 0 0 0
0 0 0 0 0 0 0 0 0 0 0 0 0 0 0 0 0 0 0 0 0 0 0 0 0 0 0 0 0 0 0 0 0 0 0 0 0 0 0 0 0 0 0 0
0 0 0 0 0 0 0 0 0 0 0 0 0 0 0 0 0 0 0 0 0 0 0 0 0 0 0 0 0 0 0 0 0 0 0 0 0 0 0 0 0 0 0 0
0 0 0 0 0 0 0 0 0 0 0 0 0 0 0 0 0 0 0 0 0 0 0 0 0 0 0 0 0 0 0 0 0 0 0 0 0 0 0 0 0 0 0 0
0 0 0 0 0 0 0 0 0 0 0 0 0 0 0 0 0 0 0 0 0 0 0 0 0 0 0 0 0 0 0 0 0 0 0 0 0 0 0 0 0 0 0 0
0 0 0 0 0 0 0 0 0 0 0 0 0 0 0 0 0 0 0 0 0 0 0 0 0 0 0 0 0 0 0 0 0 0 0 0 0 0 0 0 0 0 0 0
0 0 0 0 0 0 0 0 0 0 0 0 0 0 0 0 0 0 0 0 0 0 0 0 0 0 0 0 0 0 0 0 0 0 0 0 0 0 0 0 0 0 0 0
0 0 0 0 0 0 0 0 0 0 0 0 0 0 0 0 0 0 0 0 0 0 0 0 0 0 0 0 0 0 0 0 0 0 0 0 0 0 0 0 0 0 0 0
Wind_Speed
5 5 4 6 7 5 6 8 8 9 10 12 8 6 6 4 3 3 4 4 4 4 4 3 3 3 2 2 2 1 2 2 3 2 2 2 2 2 2 2 2 3 3 3
4 4 4 8 9 9 9 8 9 9 12 9 6 4 4 4 4 4 5 5 5 5 4 4 4 3 3 2 2 2 2 3 2 2 1 2 2 2 2 2 2 2 2 3
4 4 4 8 8 8 6 6 7 10 10 6 5 5 5 5 4 5 5 5 5 5 5 5 5 4 3 3 2 2 2 2 1 1 1 2 2 2 2 2 2 2 2 2
1 1 6 8 3 5 5 6 7 7 7 5 6 6 5 4 4 4 4 4 4 5 5 4 4 3 3 2 1 1 1 1 1 1 2 1 1 2 2 2 2 2 2 3
2 3 8 7 3 3 4 6 5 6 8 7 6 4 5 4 3 4 5 4 4 4 4 4 4 3 2 1 1 1 2 2 2 2 2 2 2 2 2 2 2 2 2 2
3 4 7 7 3 2 1 5 5 5 7 6 3 3 6 4 3 3 3 3 3 3 3 3 3 2 1 2 2 3 3 3 2 2 2 3 3 2 1 1 2 1 1 2
5 5 9 6 3 1 3 6 3 3 4 4 4 6 6 4 4 3 3 3 2 2 3 3 3 1 1 2 3 4 3 2 2 2 2 2 2 1 1 1 1 1 1 2
5 6 10 3 2 5 7 3 2 3 4 4 5 6 5 4 4 3 3 3 2 2 3 3 2 1 1 3 3 2 2 2 2 1 1 1 1 1 1 1 1 1 1 1
8 9 5 3 5 5 2 3 4 4 5 4 5 5 5 4 4 3 3 3 2 2 3 3 2 1 2 3 2 2 2 2 2 1 1 1 1 1 1 1 1 2 2 2
4 7 6 5 5 4 3 5 6 5 6 5 6 6 6 4 4 3 3 3 2 2 3 4 3 2 3 2 2 1 1 2 1 1 1 1 1 1 1 2 2 2 2 2
6 6 5 5 6 6 5 5 5 6 6 6 6 6 5 4 4 3 3 3 2 2 3 4 4 3 3 2 1 1 2 2 2 1 1 1 1 1 2 2 3 3 3 3
8 7 5 6 5 4 5 6 6 6 6 5 4 5 4 4 3 3 3 3 3 3 3 4 3 3 3 2 1 1 1 2 1 1 1 1 1 1 2 2 3 4 4 3
7 5 5 6 5 4 5 6 6 5 5 5 4 3 3 3 3 3 3 3 3 4 4 4 3 3 3 2 1 2 2 2 2 1 1 1 1 2 2 2 3 3 4 4
6 4 5 5 5 5 4 5 4 3 3 3 3 3 2 3 3 3 4 4 3 3 3 3 3 4 3 2 2 2 2 3 2 2 1 2 2 2 2 2 2 2 3 3
5 5 6 5 4 4 3 2 2 3 4 3 3 3 3 3 4 4 4 3 3 3 3 3 3 4 3 2 2 2 2 2 2 2 1 1 1 1 1 2 1 1 1 2
4 4 4 4 5 4 3 3 3 5 4 4 4 3 3 3 3 3 3 2 2 3 4 3 4 4 3 3 2 2 2 3 2 1 1 1 1 1 1 1 1 1 1 1
3 4 4 4 5 5 4 4 5 5 4 4 4 4 3 2 3 3 3 3 3 4 4 3 4 4 3 2 2 2 2 2 2 1 1 1 1 1 1 1 1 1 1 1
6 6 6 5 5 5 5 4 5 5 4 4 3 2 2 3 3 4 4 3 3 3 3 3 3 3 2 2 2 1 1 1 1 1 1 1 1 1 1 1 1 1 1 1
3 4 4 4 4 4 4 4 4 4 3 3 2 3 3 3 3 3 3 2 3 3 4 3 4 2 2 2 2 1 1 1 1 1 1 1 1 1 1 1 1 1 1 1
2 2 2 3 2 2 3 3 3 3 3 2 2 2 3 3 3 3 3 3 3 3 4 4 3 2 2 2 1 1 1 1 1 1 1 1 1 1 1 1 1 1 1 1
2 2 2 2 2 2 2 3 3 3 3 2 2 3 3 3 2 2 2 3 3 3 3 4 2 2 2 1 1 0 1 1 1 1 1 1 0 0 0 0 0 0 1 1
2 2 2 2 2 2 3 2 2 3 2 2 2 2 2 2 2 2 3 3 3 4 2 2 2 2 1 0 0 1 1 1 1 1 1 1 1 1 0 0 1 1 1 1
2 2 2 2 2 3 3 2 2 2 2 2 2 2 2 2 2 2 3 2 2 3 2 2 3 2 1 0 0 1 1 1 1 1 1 1 1 1 1 1 1 1 1 1
2 2 2 1 1 1 2 3 2 2 2 2 2 2 2 1 2 2 2 3 4 3 2 2 2 1 0 0 1 0 0 1 1 1 1 1 0 0 0 1 1 1 1 1
2 1 1 1 1 2 2 2 2 2 1 1 2 2 1 1 2 2 1 1 2 2 1 2 1 1 1 1 1 0 0 1 1 1 1 1 0 0 0 1 1 1 1 1
1 1 2 2 2 2 1 1 1 2 1 1 2 2 1 1 0 0 0 0 1 2 1 1 1 1 1 0 0 0 0 0 0 0 0 0 0 0 1 1 1 1 1 1
1 1 1 1 1 1 1 1 1 1 1 1 1 1 1 1 1 1 1 1 1 1 1 1 1 1 1 1 1 1 0 0 0 0 0 0 0 1 1 1 1 1 1 1
Wind_Direction
249 260 251 257 260 247 227 220 223 245 254 271 279 276 277 283 295 314 315 313 307 297 289 285 281 273 260 259 259 249 226 226 234 233 229 223 215 213 212 208 205 203 203 213
279 269 271 278 266 248 249 243 240 255 266 267 275 275 275 280 282 290 294 300 307 306 301 289 277 271 269 266 259 245 231 237 240 222 221 225 218 202 204 212 212 205 212 213
266 295 326 278 248 221 222 222 214 238 254 275 286 281 269 270 268 272 281 290 293 294 294 288 280 268 258 255 251 234 233 245 235 219 221 228 217 200 208 214 213 215 220 222
251 16 244 249 238 206 216 248 236 245 263 267 263 265 271 261 246 266 279 284 290 291 291 294 295 293 274 254 237 237 245 255 249 230 228 229 214 213 219 219 214 216 225 229
182 234 270 282 258 202 207 265 246 245 266 275 275 292 295 275 250 252 263 273 280 283 282 293 298 297 289 283 259 248 257 264 257 234 228 224 221 225 222 204 218 224 227 228
185 209 244 254 267 271 142 272 265 246 261 273 296 287 279 294 292 280 285 290 297 305 303 301 299 301 284 274 263 256 260 259 256 236 221 227 229 231 225 204 214 206 232 238
209 232 260 260 279 90 176 251 279 260 259 257 241 241 266 291 292 278 282 292 302 310 307 297 302 307 277 274 265 266 271 268 259 240 231 231 222 234 219 207 189 197 233 256
185 216 251 247 141 191 229 259 266 268 267 256 257 269 273 276 277 285 296 303 307 310 306 306 314 327 299 289 289 303 303 290 274 259 250 243 199 246 224 185 187 217 240 268
198 218 246 203 207 235 240 259 273 273 277 270 271 273 276 276 273 278 284 293 302 302 308 313 304 271 270 288 304 316 318 304 300 293 272 228 199 218 220 203 210 230 226 243
240 253 256 253 258 269 261 259 269 268 272 271 266 272 276 279 279 282 289 292 298 308 307 305 304 298 268 280 296 300 297 302 308 297 298 282 234 219 214 215 218 225 231 238
249 266 283 265 252 254 264 270 277 282 273 265 265 270 266 268 273 279 290 296 293 282 280 286 295 297 291 289 293 293 291 290 291 270 253 260 249 232 230 229 220 223 229 225
237 235 227 255 260 258 262 272 276 284 290 286 265 262 268 270 270 273 281 288 291 287 286 288 293 293 295 291 265 254 282 284 280 273 263 258 257 288 284 259 263 256 247 237
240 251 242 258 271 267 262 273 279 275 275 284 287 268 266 271 274 277 282 281 277 279 283 288 291 291 296 293 274 248 254 267 269 261 252 248 245 241 275 309 298 281 268 255
236 242 261 258 263 270 271 280 285 289 286 278 277 279 267 269 276 278 279 281 280 279 284 287 286 287 292 290 277 262 260 262 254 243 241 241 243 242 233 245 278 303 292 276
241 232 240 263 270 279 284 291 300 299 301 299 287 273 264 265 273 279 282 286 291 289 288 288 287 291 299 294 282 267 264 258 240 235 237 238 244 246 242 240 255 289 323 314
257 256 252 257 263 270 277 278 277 282 288 288 287 281 272 267 272 282 288 286 284 289 291 289 285 290 298 296 291 280 267 262 253 228 214 215 224 237 241 242 246 252 266 283
239 259 260 262 264 268 264 260 262 270 277 278 279 282 285 284 287 289 291 289 280 278 280 277 280 289 290 282 271 268 264 253 249 241 219 216 225 231 232 225 228 237 247 250
229 242 244 242 251 261 267 267 268 270 268 271 275 273 267 265 272 281 289 297 298 297 288 275 274 280 280 276 267 254 242 238 237 234 229 220 227 233 233 224 225 233 254 253
243 243 249 249 248 248 255 266 271 271 271 272 269 264 263 265 267 274 283 288 286 291 294 288 294 297 283 275 286 250 239 236 243 251 229 210 224 239 242 246 240 236 224 208
265 261 258 262 259 246 257 273 280 282 279 271 269 273 276 275 270 270 273 274 267 266 277 291 296 282 274 267 280 247 237 226 225 236 236 210 215 240 256 267 268 233 212 213
265 264 261 263 277 279 273 275 277 280 284 272 255 260 270 280 276 267 268 283 288 283 286 301 306 284 273 258 254 221 231 221 210 213 211 208 197 201 240 275 287 275 255 255
253 252 260 269 277 290 292 282 272 273 281 281 271 264 270 279 279 277 265 261 272 293 305 289 286 278 273 271 201 202 215 206 199 202 205 201 189 204 234 261 277 290 295 283
253 251 256 265 271 282 295 289 276 266 265 268 263 257 259 264 262 262 284 278 271 294 310 279 281 286 290 83 175 186 194 193 199 209 210 202 204 214 229 254 273 282 282 290
254 259 265 276 297 300 299 299 296 284 276 276 269 262 256 267 282 270 263 280 297 314 313 284 295 305 77 95 125 157 185 190 199 204 187 173 185 215 228 235 255 271 272 282
247 249 249 270 276 272 277 294 310 308 305 304 301 291 271 240 246 275 285 273 300 345 346 336 357 49 73 106 125 152 199 201 183 159 151 162 189 232 255 255 255 265 271 273
244 248 246 246 249 258 267 275 285 290 296 310 318 314 316 321 301 289 296 315 355 17 18 9 16 38 70 110 134 174 200 189 85 115 162 180 218 253 271 278 278 269 269 272
261 260 265 283 283 269 258 255 264 273 270 268 294 303 310 333 8 24 26 45 53 43 34 28 30 35 47 60 65 53 45 58 81 112 179 214 237 261 271 276 276 276 275 273